SR5NLK-1 Weather Reports


time (UTC)temp
F
wind
direction
speed
knots
gust
knots
rain 1hr
in
rain 24hr
in
rain mn
in
humidity
%
barometer
mb
20260508100725 57 292 1.7 3.5 0.00 0.00 0.00 68 1046.0
20260508100324 57 202 0.0 3.5 0.00 0.00 0.00 68 1052.2
20260508100225 57 315 0.0 3.5 0.00 0.00 0.00 68 1081.5
20260508095725 57 315 2.6 5.2 0.00 0.00 0.00 67 1087.8
20260508095225 57 270 0.9 4.3 0.00 0.00 0.00 67 1084.6
20260508094725 58 292 2.6 7.8 0.00 0.00 0.00 65 1007.9
20260508094225 59 22 4.3 7.0 0.00 0.00 0.00 64 1081.5
20260508093725 60 270 5.2 7.0 0.00 0.00 0.00 64 1030.3
20260508093226 61 315 1.7 4.3 0.00 0.00 0.00 65 1036.6
20260508093025 61 292 3.5 4.3 0.00 0.00 0.00 67 994.7
20260508092725 61 292 1.7 6.1 0.00 0.00 0.00 65 1055.4
20260508092226 61 292 6.1 6.1 0.00 0.00 0.00 66 1036.6
20260508091725 61 292 0.0 3.5 0.00 0.00 0.00 70 881.7
20260508091226 60 292 2.6 2.6 0.00 0.00 0.00 74 1027.1
20260508090726 59 337 0.9 4.3 0.00 0.00 0.00 75 1087.8
20260508090226 57 292 0.0 1.7 0.00 0.00 0.00 79 1039.7
20260508085736 57 270 0.0 6.1 0.00 0.00 0.00 78 1085.2
20260508085725 56 270 0.0 6.1 0.00 0.00 0.00 78 1052.2
20260508085226 56 270 0.0 5.2 0.00 0.00 0.00 78 1081.5
20260508084726 56 337 2.6 3.5 0.00 0.00 0.00 81 1049.1
20260508084226 55 270 0.9 2.6 0.00 0.00 0.00 82 1090.9
20260508083726 54 22 0.9 2.6 0.00 0.00 0.00 84 1090.9
20260508083226 53 22 0.0 2.6 0.00 0.00 0.00 84 1078.4
20260508082726 53 270 1.7 5.2 0.00 0.00 0.00 84 1058.5
20260508082425 52 315 1.7 5.2 0.00 0.00 0.00 84 1020.8
20260508082226 52 292 3.5 5.2 0.00 0.00 0.00 84 1072.1
20260508081726 52 315 3.5 4.3 0.00 0.00 0.00 85 1052.2
20260508081226 53 0 0.9 4.3 0.00 0.00 0.00 86 1049.1
20260508080726 53 315 0.9 1.7 0.00 0.00 0.00 87 1007.3
20260508080226 53 315 0.0 1.7 0.00 0.00 0.00 88 1061.5
20260508075726 52 0 0.0 0.0 0.00 0.00 0.00 88 1007.3
20260508075226 52 247 0.0 2.6 0.00 0.00 0.00 88 1049.1
20260508075125 52 315 1.7 2.6 0.00 0.00 0.00 89 1015.6
20260508074726 51 337 0.9 2.6 0.00 0.00 0.00 89 1097.2
20260508074226 51 22 0.9 3.5 0.00 0.00 0.00 89 1013.5
20260508073726 51 337 2.6 4.3 0.00 0.00 0.00 89 1055.3
20260508073226 50 315 2.6 4.3 0.00 0.00 0.00 89 1010.4
20260508072726 50 0 1.7 5.2 0.00 0.00 0.00 89 978.9
20260508072226 50 337 0.9 6.1 0.00 0.00 0.00 89 997.9
20260508071825 49 0 3.5 4.3 0.00 0.00 0.00 89 1029.5
20260508071726 49 0 1.7 4.3 0.00 0.00 0.00 89 981.4
20260508071226 49 315 3.5 5.2 0.00 0.00 0.00 89 1097.2
20260508070726 49 0 2.6 5.2 0.00 0.00 0.00 88 1004.1
20260508070226 49 0 3.5 4.3 0.00 0.00 0.00 88 1081.5
20260508065726 49 22 3.5 3.5 0.00 0.00 0.00 88 1013.4
20260508065226 49 292 1.7 4.3 0.00 0.00 0.00 88 962.3
20260508064726 49 67 0.9 4.3 0.00 0.00 0.00 88 1041.7
20260508064525 49 0 3.5 3.5 0.00 0.00 0.00 88 1055.3
20260508064226 49 337 1.7 5.2 0.00 0.00 0.00 88 1097.2
20260508063726 49 270 2.6 3.5 0.00 0.00 0.00 88 1022.8
20260508063226 49 0 0.9 3.5 0.00 0.00 0.00 87 1003.4
20260508062726 49 0 1.7 2.6 0.00 0.00 0.00 87 1014.6
20260508062226 49 337 1.7 3.5 0.00 0.00 0.00 87 1008.4
20260508061726 49 45 0.0 5.2 0.00 0.00 0.00 87 957.7
20260508061225 49 22 5.2 5.2 0.00 0.00 0.00 86 929.8
20260508060726 49 0 0.9 3.5 0.00 0.00 0.00 86 932.7
20260508060226 49 315 0.0 5.2 0.00 0.00 0.00 86 1052.2
20260508055726 49 292 4.3 5.2 0.00 0.00 0.00 85 956.0
20260508055226 49 315 1.7 5.2 0.00 0.00 0.00 85 1062.1
20260508054726 50 315 2.6 3.5 0.00 0.00 0.00 85 1090.9
20260508054226 50 0 1.7 5.2 0.00 0.00 0.00 85 1004.1
20260508053925 50 315 1.7 6.1 0.00 0.00 0.00 85 1036.1
20260508053726 50 22 1.7 6.1 0.00 0.00 0.00 85 1052.2
20260508053226 50 315 0.9 2.6 0.00 0.00 0.00 85 932.5
20260508052726 49 247 0.0 5.2 0.00 0.00 0.00 85 1011.8
20260508052226 50 22 4.3 7.0 0.00 0.00 0.00 85 1097.2
20260508051726 50 22 2.6 5.2 0.00 0.00 0.00 84 1052.1
20260508051226 50 337 4.3 4.3 0.00 0.00 0.00 84 962.2
20260508050726 50 0 2.6 4.3 0.00 0.00 0.00 84 1046.0
20260508050625 50 315 3.5 5.2 0.00 0.00 0.00 84 997.8
20260508050226 50 337 2.6 5.2 0.00 0.00 0.00 84 1016.6
20260508045726 50 292 3.5 4.3 0.00 0.00 0.00 84 1052.2
20260508045226 50 337 3.5 6.1 0.00 0.00 0.00 84 1097.2
20260508044726 50 270 4.3 6.1 0.00 0.00 0.00 84 1016.7
20260508044226 50 337 2.6 6.1 0.00 0.00 0.00 84 1049.1
20260508043726 50 315 4.3 7.0 0.00 0.00 0.00 84 1013.0
20260508043325 50 315 3.5 4.3 0.00 0.00 0.00 84 1001.0
20260508043226 50 292 3.5 5.2 0.00 0.00 0.00 84 1057.6
20260508042726 50 337 5.2 5.2 0.00 0.00 0.00 84 1013.5
20260508042226 50 292 2.6 5.2 0.00 0.00 0.00 84 931.3
20260508041726 50 315 5.2 7.0 0.00 0.00 0.00 84 929.8
20260508041226 50 0 1.7 3.5 0.00 0.00 0.00 84 929.3
20260508040726 49 292 0.9 5.2 0.00 0.00 0.00 84 1055.4
20260508040226 49 22 0.0 3.5 0.00 0.00 0.00 84 1011.2
20260508040025 49 0 3.5 3.5 0.00 0.00 0.00 84 967.4
20260508035726 49 337 2.6 3.5 0.00 0.00 0.00 84 963.0
20260508035226 49 337 0.9 5.2 0.00 0.00 0.00 84 976.8
20260508034726 49 292 1.7 5.2 0.00 0.00 0.00 84 1055.5
20260508034226 49 337 1.7 7.0 0.00 0.00 0.00 84 1053.8
20260508033726 49 225 0.0 6.1 0.00 0.00 0.00 84 996.1
20260508033226 49 315 3.5 5.2 0.00 0.00 0.00 84 1039.7
20260508032725 49 315 4.3 7.0 0.00 0.00 0.00 84 972.8
20260508032226 49 337 0.9 7.0 0.00 0.00 0.00 83 1020.1
20260508031726 49 292 3.5 7.0 0.00 0.00 0.00 83 918.9
20260508031226 49 0 0.0 7.0 0.00 0.00 0.00 83 1081.5
20260508030726 49 315 6.1 6.1 0.00 0.00 0.00 83 1007.3
20260508030226 49 292 1.7 6.1 0.00 0.00 0.00 83 977.8
20260508025726 49 247 4.3 5.2 0.00 0.00 0.00 83 1049.1
20260508025425 50 337 2.6 7.8 0.00 0.00 0.00 83 1004.2
20260508025226 50 337 3.5 7.8 0.00 0.00 0.00 82 1053.6
20260508024726 50 292 1.7 5.2 0.00 0.00 0.00 82 974.8
20260508024226 50 0 5.2 6.1 0.00 0.00 0.00 82 1005.1
20260508023726 50 0 3.5 5.2 0.00 0.00 0.00 82 986.4
20260508023226 50 22 4.3 6.1 0.00 0.00 0.00 82 1051.5
20260508022727 50 0 5.2 5.2 0.00 0.00 0.00 82 1016.6
20260508022226 50 45 1.7 5.2 0.00 0.00 0.00 82 1024.1
20260508022125 50 0 5.2 5.2 0.00 0.00 0.00 82 917.5
20260508021726 50 22 1.7 5.2 0.00 0.00 0.00 82 980.7
20260508021226 50 315 3.5 7.0 0.00 0.00 0.00 82 1067.8
20260508020726 50 0 4.3 7.0 0.00 0.00 0.00 81 1055.4
20260508020226 50 0 3.5 4.3 0.00 0.00 0.00 81 1003.4
20260508015726 50 0 4.3 7.0 0.00 0.00 0.00 81 1001.0
20260508015227 50 337 2.6 7.0 0.00 0.00 0.00 81 981.1
20260508014825 50 22 5.2 7.0 0.00 0.00 0.00 81 971.1
20260508014726 50 337 4.3 7.0 0.00 0.00 0.00 81 997.3
20260508014226 50 22 6.1 7.0 0.00 0.00 0.00 80 968.4
20260508013726 50 0 6.1 7.0 0.00 0.00 0.00 80 1033.7
20260508013226 50 22 7.0 8.7 0.00 0.00 0.00 80 922.3
20260508012726 50 337 6.1 7.0 0.00 0.00 0.00 80 1081.5
20260508012226 50 0 1.7 8.7 0.00 0.00 0.00 80 1021.5
20260508011726 50 0 4.3 5.2 0.00 0.00 0.00 80 1081.5
20260508011525 50 0 3.5 5.2 0.00 0.00 0.00 80 966.6
20260508011226 50 337 2.6 5.2 0.00 0.00 0.00 80 1078.3
20260508010726 50 22 1.7 5.2 0.00 0.00 0.00 79 1007.9
20260508010226 50 0 2.6 5.2 0.00 0.00 0.00 79 967.2
20260508005726 50 22 2.6 7.0 0.00 0.00 0.00 79 1013.5
20260508005226 50 0 3.5 5.2 0.00 0.00 0.00 79 972.4
20260508004726 50 45 2.6 7.0 0.00 0.00 0.00 79 1049.0
20260508004225 50 0 1.7 7.8 0.00 0.00 0.00 79 950.1
20260508003726 51 0 2.6 5.2 0.00 0.00 0.00 79 1066.3
20260508003226 51 22 2.6 2.6 0.00 0.00 0.00 79 1077.4
20260508002726 51 337 1.7 5.2 0.00 0.00 0.00 79 1071.0
20260508002226 51 337 5.2 5.2 0.00 0.00 0.00 79 1015.0
20260508001726 51 45 4.3 6.1 0.00 0.00 0.00 79 1025.0
20260508001226 51 337 6.1 6.1 0.00 0.00 0.00 79 972.9
20260508000925 51 337 1.7 5.2 0.00 0.00 0.00 79 1055.3
20260508000728 51 22 2.6 6.1 0.00 0.00 0.00 79 1007.3
20260508000227 51 0 8.7 9.6 0.00 0.00 0.00 79 1017.1
20260507235727 51 0 4.3 6.1 0.00 0.00 0.00 79 971.7
20260507235226 51 0 2.6 7.0 0.00 0.00 0.00 79 979.7
20260507234726 51 22 2.6 7.0 0.00 0.00 0.00 79 938.2
20260507234227 51 337 4.3 7.0 0.00 0.00 0.00 79 1016.6
20260507233736 51 337 1.7 7.0 0.00 0.00 0.00 79 893.9
20260507233727 51 337 1.7 7.0 0.00 0.00 0.00 79 893.9
20260507233626 51 0 3.5 7.0 0.00 0.00 0.00 79 1013.7
20260507233227 51 337 2.6 7.0 0.00 0.00 0.00 79 930.7
20260507232727 51 45 5.2 6.1 0.00 0.00 0.00 79 980.9
20260507232227 51 337 3.5 4.3 0.00 0.00 0.00 79 1010.4
20260507231727 51 22 3.5 7.0 0.00 0.00 0.00 79 1012.3
20260507231227 51 22 7.0 7.8 0.00 0.00 0.00 79 1046.0
20260507230727 51 22 5.2 8.7 0.00 0.00 0.00 79 1036.6
20260507230326 51 0 4.3 8.7 0.00 0.00 0.00 79 1026.5
20260507230227 51 22 1.7 8.7 0.00 0.00 0.00 79 975.8
20260507225727 51 292 3.5 7.0 0.00 0.00 0.00 79 1100.3
20260507225227 51 315 2.6 8.7 0.00 0.00 0.00 79 983.4
20260507224727 51 0 1.7 8.7 0.00 0.00 0.00 79 1023.7
20260507224227 51 0 8.7 8.7 0.00 0.00 0.00 79 1016.2
20260507223727 52 22 3.5 7.8 0.00 0.00 0.00 78 1052.2
20260507223227 52 45 1.7 7.8 0.00 0.00 0.00 78 1051.5
20260507223026 52 0 7.8 7.8 0.00 0.00 0.00 78 1061.5
20260507222727 52 0 4.3 7.8 0.00 0.00 0.00 78 1052.2
20260507222227 52 337 3.5 5.2 0.00 0.00 0.00 78 1055.3
20260507221727 52 0 1.7 5.2 0.00 0.00 0.00 78 961.4
20260507221227 52 292 0.9 7.0 0.00 0.00 0.00 78 974.7
20260507220727 52 337 7.0 7.0 0.00 0.00 0.00 77 1012.0
20260507220227 52 0 2.6 8.7 0.00 0.00 0.00 78 974.8
20260507215726 52 90 1.7 8.7 0.00 0.00 0.00 77 1052.2
20260507215227 52 0 2.6 6.1 0.00 0.00 0.00 77 1070.1
20260507214727 52 45 4.3 8.7 0.00 0.00 0.00 77 1037.3
20260507214227 52 337 5.2 8.7 0.00 0.00 0.00 77 1094.0
20260507213727 52 0 4.3 7.0 0.00 0.00 0.00 77 988.4
20260507213227 52 0 5.2 7.0 0.00 0.00 0.00 77 1053.3
20260507212727 53 0 4.3 6.1 0.00 0.00 0.00 77 1039.7
20260507212426 53 22 6.1 8.7 0.00 0.00 0.00 77 1004.1
20260507212227 53 22 5.2 8.7 0.00 0.00 0.00 77 1019.7
20260507211727 53 22 4.3 7.0 0.00 0.00 0.00 76 1033.4
20260507211227 53 0 7.0 7.0 0.00 0.00 0.00 76 1001.0
20260507210727 53 22 5.2 6.1 0.00 0.00 0.00 76 1100.3
20260507210227 53 0 3.5 3.5 0.00 0.00 0.00 76 1078.4
20260507205727 53 337 4.3 5.2 0.00 0.00 0.00 76 1042.8
20260507205227 53 0 5.2 8.7 0.00 0.00 0.00 76 1001.0
20260507205126 53 0 6.1 6.1 0.00 0.00 0.00 76 1055.3
20260507204727 53 0 1.7 7.0 0.00 0.00 0.00 76 1084.6
20260507204227 53 315 3.5 5.2 0.00 0.00 0.00 76 1042.8
20260507203727 53 45 1.7 5.2 0.00 0.00 0.00 76 1001.0
20260507203227 53 315 3.5 5.2 0.00 0.00 0.00 76 1081.5
20260507202727 53 337 2.6 4.3 0.00 0.00 0.00 76 1036.5
20260507202227 53 315 2.6 5.2 0.00 0.00 0.00 76 1087.8
20260507201826 53 292 4.3 5.2 0.00 0.00 0.00 76 1049.1
20260507201727 53 292 3.5 3.5 0.00 0.00 0.00 76 1075.2
20260507201227 53 270 1.7 5.2 0.00 0.00 0.00 76 1004.1
20260507200727 53 292 3.5 4.3 0.00 0.00 0.00 76 1084.7
20260507200227 53 67 0.9 5.2 0.00 0.00 0.00 76 991.6
20260507195727 54 292 3.5 5.2 0.00 0.00 0.00 76 1030.2
20260507195227 54 292 2.6 3.5 0.00 0.00 0.00 76 1075.2
20260507194727 54 270 1.7 4.3 0.00 0.00 0.00 76 1081.5
20260507194526 54 292 1.7 5.2 0.00 0.00 0.00 76 1036.5
20260507194227 54 292 2.6 5.2 0.00 0.00 0.00 76 1062.7
20260507193727 54 315 3.5 3.5 0.00 0.00 0.00 76 1078.4
20260507193227 54 315 3.5 5.2 0.00 0.00 0.00 76 1049.3
20260507192727 54 315 1.7 4.3 0.00 0.00 0.00 76 1042.8
20260507192227 54 0 2.6 3.5 0.00 0.00 0.00 76 1097.2
20260507191727 54 315 2.6 5.2 0.00 0.00 0.00 76 1075.2
20260507191226 54 315 0.9 2.6 0.00 0.00 0.00 75 1081.5
20260507190727 54 0 0.0 21.7 0.00 0.00 0.00 75 1078.9
20260507190227 54 292 2.6 3.5 0.00 0.00 0.00 75 1053.7
20260507185727 54 292 0.0 5.2 0.00 0.00 0.00 75 1084.7
20260507185227 54 315 4.3 6.1 0.00 0.00 0.00 75 1078.4
20260507184727 54 292 6.1 6.1 0.00 0.00 0.00 75 1078.4
20260507184227 54 337 2.6 4.3 0.00 0.00 0.00 75 1036.6
20260507183926 54 337 2.6 6.1 0.00 0.00 0.00 75 1010.4
20260507183727 54 292 1.7 6.1 0.00 0.00 0.00 75 1072.1
20260507183227 54 315 4.3 4.3 0.00 0.00 0.00 75 1078.4
20260507182737 54 315 4.3 7.0 0.00 0.00 0.00 75 1087.8
20260507182727 54 315 4.3 7.0 0.00 0.00 0.00 75 1087.8
20260507182227 54 315 0.9 6.1 0.00 0.00 0.00 75 1084.7
20260507181727 54 0 3.5 6.1 0.00 0.00 0.00 75 1072.1
20260507181633 54 315 4.3 7.8 0.00 0.00 0.00 74 1035.0
20260507181227 54 337 5.2 7.0 0.00 0.00 0.00 74 1066.3
20260507180727 54 315 4.3 7.8 0.00 0.00 0.00 74 1035.0
20260507180626 54 292 5.2 7.8 0.00 0.00 0.00 74 1029.5
20260507180227 54 315 0.9 7.8 0.00 0.00 0.00 74 1016.5
20260507175727 54 337 3.5 7.8 0.00 0.00 0.00 74 1039.2
20260507175227 55 292 7.0 7.8 0.00 0.00 0.00 74 1043.7
20260507174727 55 315 7.0 7.8 0.00 0.00 0.00 74 1075.6
20260507174227 55 292 7.8 8.7 0.00 0.00 0.00 73 1024.0
20260507173727 55 315 7.8 10.4 0.00 0.00 0.00 73 1046.0
20260507173326 55 292 6.1 7.8 0.00 0.00 0.00 73 1065.8
20260507173227 55 0 5.2 7.8 0.00 0.00 0.00 73 1082.0
20260507172728 55 0 3.5 10.4 0.00 0.00 0.00 73 1072.1
20260507172227 55 337 4.3 7.0 0.00 0.00 0.00 73 1087.8
20260507171727 56 315 5.2 7.0 0.00 0.00 0.00 73 1091.0
20260507171227 56 315 4.3 12.2 0.00 0.00 0.00 72 1001.0
20260507170727 56 315 5.2 7.8 0.00 0.00 0.00 72 1059.5
20260507170227 57 0 7.8 10.4 0.00 0.00 0.00 72 1087.8
20260507170026 57 22 5.2 10.4 0.00 0.00 0.00 71 1078.4
20260507165727 57 315 1.7 10.4 0.00 0.00 0.00 71 1090.9
20260507165227 57 315 8.7 8.7 0.00 0.00 0.00 70 1090.9
20260507164728 57 337 7.0 8.7 0.00 0.00 0.00 70 962.4
20260507164227 58 292 5.2 7.8 0.00 0.00 0.00 69 1094.1
20260507163727 58 0 0.0 7.8 0.00 0.00 0.00 69 1046.0
20260507163227 58 337 2.6 5.2 0.00 0.00 0.00 70 1039.7
20260507162726 58 0 4.3 7.0 0.00 0.00 0.00 69 1072.1
20260507162227 58 292 7.0 8.7 0.00 0.00 0.00 69 1084.7
20260507161727 58 315 3.5 8.7 0.00 0.00 0.00 69 1068.9
20260507161227 58 22 5.2 9.6 0.00 0.00 0.00 69 1078.4
20260507160727 58 22 1.7 7.0 0.00 0.00 0.00 70 1081.5
20260507160227 58 337 2.6 7.8 0.00 0.00 0.00 70 1007.3
20260507155727 58 0 1.7 7.0 0.00 0.00 0.00 70 956.0
20260507155426 58 337 3.5 4.3 0.00 0.00 0.00 70 1030.2
20260507155228 58 315 3.5 5.2 0.00 0.00 0.00 70 1055.4
20260507154727 58 315 5.2 7.8 0.00 0.00 0.00 70 1046.0
20260507154227 58 292 1.7 9.6 0.00 0.00 0.00 69 1065.8
20260507153727 58 292 4.3 8.7 0.00 0.00 0.00 69 1004.1
20260507153227 59 0 5.2 7.0 0.00 0.00 0.00 69 994.7
20260507152728 59 292 4.3 5.2 0.00 0.00 0.00 68 1016.7
20260507152228 59 292 1.7 7.8 0.00 0.00 0.00 68 1049.1
20260507152126 60 337 6.1 7.8 0.00 0.00 0.00 68 1010.3
20260507151727 60 292 2.6 10.4 0.00 0.00 0.00 67 1001.0
20260507151227 60 292 6.1 7.0 0.00 0.00 0.00 67 977.4
20260507150727 60 292 6.1 7.8 0.00 0.00 0.00 68 997.5
20260507150227 60 315 4.3 6.1 0.00 0.00 0.00 68 1019.8
20260507145727 60 0 2.6 7.8 0.00 0.00 0.00 68 1084.7
20260507145227 60 22 1.7 9.6 0.00 0.00 0.00 68 964.2
20260507144826 60 247 3.5 9.6 0.00 0.00 0.00 68 943.1
20260507144728 60 270 6.1 7.8 0.00 0.00 0.00 68 900.4
20260507144227 60 292 2.6 6.1 0.00 0.00 0.00 68 1016.7
20260507143727 60 292 3.5 10.4 0.00 0.00 0.00 67 962.3
20260507143227 60 315 5.2 10.4 0.00 0.00 0.00 67 981.3
20260507142728 60 292 7.8 8.7 0.00 0.00 0.00 68 1094.1
20260507142236 60 292 3.5 8.7 0.00 0.00 0.00 68 1052.2
20260507142228 60 292 3.5 8.7 0.00 0.00 0.00 68 1052.2
20260507141728 60 315 3.5 11.3 0.00 0.00 0.00 68 1015.3
20260507141527 60 337 2.6 11.3 0.00 0.00 0.00 68 1007.3
20260507141228 60 292 5.2 8.7 0.00 0.00 0.00 68 968.3
20260507140728 60 292 4.3 10.4 0.00 0.00 0.00 68 976.1
20260507140228 60 292 7.8 13.0 0.00 0.00 0.00 67 972.4
20260507135728 61 292 6.1 12.2 0.00 0.00 0.00 67 965.2
20260507135228 61 315 5.2 9.6 0.00 0.00 0.00 67 982.8
20260507134728 61 337 3.5 8.7 0.00 0.00 0.00 68 965.3
20260507134227 61 315 7.0 9.6 0.00 0.00 0.00 68 952.9
20260507133728 61 292 8.7 9.6 0.00 0.00 0.00 68 1004.1
20260507133228 61 292 2.6 9.6 0.00 0.00 0.00 68 1010.4
20260507132728 61 292 4.3 11.3 0.00 0.00 0.00 69 968.6
20260507132228 60 292 8.7 8.7 0.00 0.00 0.00 70 977.8
20260507131728 60 292 2.6 9.6 0.00 0.00 0.00 70 1042.8
20260507131228 60 315 5.2 9.6 0.00 0.00 0.00 70 1016.4
20260507130927 60 292 9.6 10.4 0.00 0.00 0.00 71 1008.4
20260507130728 60 270 4.3 10.4 0.00 0.00 0.00 71 1067.8
20260507130228 60 315 4.3 9.6 0.00 0.00 0.00 72 1052.2
20260507125728 60 292 6.1 9.6 0.00 0.00 0.00 71 974.8
20260507125228 60 315 6.1 7.8 0.00 0.00 0.00 71 968.6
20260507124728 60 315 7.8 8.7 0.00 0.00 0.00 71 1039.7
20260507124228 60 292 7.0 10.4 0.00 0.00 0.00 73 996.9
20260507123728 59 270 3.5 9.6 0.00 0.00 0.00 73 966.1
20260507123627 59 270 2.6 9.6 0.00 0.00 0.00 73 962.3
20260507123228 59 270 3.5 11.3 0.00 0.00 0.00 73 888.0
20260507122728 59 270 8.7 9.6 0.00 0.00 0.00 73 976.0
20260507122228 60 292 6.1 11.3 0.00 0.00 0.00 73 971.8
20260507121728 59 247 9.6 10.4 0.00 0.00 0.00 73 1048.4
20260507121228 60 292 5.2 10.4 0.00 0.00 0.00 73 968.1
20260507120728 60 315 7.0 8.7 0.00 0.00 0.00 73 961.2
20260507120327 60 270 7.8 7.8 0.00 0.00 0.00 73 1052.2
20260507120228 60 247 2.6 7.8 0.00 0.00 0.00 73 1046.0
20260507115728 60 270 0.9 6.1 0.00 0.00 0.00 74 1016.6
20260507115228 60 270 2.6 7.0 0.00 0.00 0.00 73 1016.7
20260507114728 60 292 4.3 5.2 0.00 0.00 0.00 73 1042.8
20260507114228 60 270 3.5 4.3 0.00 0.00 0.00 73 1027.1
20260507113728 60 270 3.5 7.0 0.00 0.00 0.00 73 923.6
20260507113228 60 292 7.0 7.0 0.00 0.00 0.00 74 1046.0
20260507113027 60 0 3.5 5.2 0.00 0.00 0.00 74 1005.8
20260507112728 60 270 5.2 5.2 0.00 0.00 0.00 75 1019.7
20260507112228 60 292 1.7 4.3 0.00 0.00 0.00 77 979.2
20260507111728 58 337 1.7 7.0 0.00 0.00 0.00 78 1061.6
20260507111228 58 0 0.9 7.0 0.00 0.00 0.00 78 1004.1
20260507110728 58 315 3.5 7.0 0.00 0.00 0.00 78 1032.9
20260507110228 58 292 3.5 6.1 0.00 0.00 0.00 77 1094.1
20260507105727 58 292 3.5 7.0 0.00 0.00 0.00 77 1042.8
20260507105228 59 270 2.6 7.8 0.00 0.00 0.00 79 926.7
20260507104728 58 225 3.5 7.0 0.00 0.00 0.00 81 960.8
20260507104228 57 292 1.7 6.1 0.00 0.00 0.00 82 1049.1
20260507103728 56 292 3.5 7.0 0.00 0.00 0.00 82 1004.1
20260507103228 56 315 3.5 5.2 0.00 0.00 0.00 82 1062.7
20260507102728 56 270 1.7 3.5 0.00 0.00 0.00 82 1007.3
20260507102427 56 270 1.7 5.2 0.00 0.00 0.00 82 952.9
20260507102228 56 315 2.6 6.1 0.00 0.00 0.00 82 988.3
20260507101728 56 292 2.6 5.2 0.00 0.00 0.00 82 981.0
20260507101228 56 315 3.5 4.3 0.00 0.00 0.00 82 956.0